This is the latest recevied weather packets stored in our database for station/object KG5VSR. If no packets are shown the sender has not sent any weather packets the latest 10 day(s).
| Time | Temp. | Humidity | Pressure | Rain* | Wind** | Luminosity | Snow |
|---|---|---|---|---|---|---|---|
| 1787877097 | 35° C | 43% | 1013.3 hPa | 0 mm | - | 14 W/m² | - |
| 1787875297 | 35.56° C | 44% | 1013.1 hPa | 0 mm | - | 19 W/m² | - |
| 1787873497 | 36.67° C | 42% | 1013.1 hPa | 0 mm | - | 113 W/m² | - |
| 1787871694 | 36.67° C | 42% | 1013.3 hPa | 0 mm | - | 205 W/m² | - |
| 1787869892 | 37.22° C | 43% | 1013.1 hPa | 0 mm | - | 309 W/m² | - |
| 1787868089 | 37.22° C | 44% | 1013.2 hPa | 0 mm | - | 388 W/m² | - |
| 1787866286 | 37.78° C | 45% | 1013.8 hPa | 0 mm | - | 511 W/m² | - |
| 1787864485 | 37.22° C | 46% | 1014.2 hPa | 0 mm | - | 425 W/m² | - |
| 1787862681 | 37.78° C | 43% | 1014.4 hPa | 0 mm | - | 540 W/m² | - |
| 1787860881 | 37.78° C | 41% | 1014.6 hPa | 0 mm | - | 747 W/m² | - |
| 1787859080 | 37.22° C | 46% | 1015 hPa | 0 mm | - | 700 W/m² | - |
| 1787857281 | 36.67° C | 49% | 1015.5 hPa | 0 mm | - | 628 W/m² | - |
| 1787855477 | 36.67° C | 49% | 1015.8 hPa | 0 mm | - | 720 W/m² | - |
| 1787853674 | 36.11° C | 54% | 1015.7 hPa | 0 mm | - | 722 W/m² | - |
| 1787851868 | 34.44° C | 58% | 1016.3 hPa | 0 mm | - | 698 W/m² | - |
| 1787850068 | 33.33° C | 60% | 1016.5 hPa | 0 mm | - | 773 W/m² | - |
| 1787848266 | 33.33° C | 62% | 1016.8 hPa | 0 mm | - | 829 W/m² | - |
| 1787846466 | 32.22° C | 66% | 1016.3 hPa | 0 mm | - | 692 W/m² | - |
| 1787844661 | 31.11° C | 68% | 1016.3 hPa | 0 mm | - | 561 W/m² | - |
| 1787842859 | 30° C | 71% | 1016.1 hPa | 0 mm | - | 459 W/m² | - |
| 1787841055 | 29.44° C | 73% | 1016.3 hPa | 0 mm | - | 246 W/m² | - |
| 1787839253 | 28.89° C | 76% | 1016.2 hPa | 0 mm | - | 228 W/m² | - |
| 1787837452 | 27.78° C | 79% | 1015.8 hPa | 0 mm | - | 117 W/m² | - |
| 1787835649 | 27.22° C | 79% | 1015.4 hPa | 0 mm | - | 55 W/m² | - |
| 1787833848 | 26.67° C | 82% | 1015 hPa | 0 mm | - | 23 W/m² | - |
* Rain latest hour (hover to see other rain measurements)
** Current wind speed in m/s (hover to see current wind gust speed)